1503529201.22,37956,16.25,73954.3,-4.21,-36.31,-36.67,0,*5A
1503529202.48,37957,16.19,73952.5,-4.23,-36.31,-36.61,0,*5F
1503529203.77,37958,16.25,73954.8,-4.23,-36.25,-36.49,0,*5F
1503529205.01,37959,16.25,73954.0,-4.23,-36.07,-36.43,0,*54
1503529206.25,37960,16.25,73952.0,-4.23,-36.07,-36.43,0,*5E
1503529207.49,37961,16.25,73954.5,-4.21,-36.13,-36.43,0,*58
1503529208.78,37962,16.19,73954.8,-4.23,-36.25,-36.49,0,*56
1503529210.0,37963,16.19,73954.0,-4.21,-36.07,-36.43,0,*5F
1503529211.26,37964,16.25,73956.3,-4.23,-35.53,-35.89,0,*5D
1503529212.55,37965,16.25,73952.0,-4.23,-35.53,-35.95,0,*51
1503529213.77,37966,16.25,73952.5,-4.21,-35.77,-36.07,0,*5E
1503529214.99,37967,16.25,73952.8,-4.21,-35.77,-36.31,0,*5A
1503529216.25,37968,16.19,73954.3,-4.21,-36.13,-36.49,0,*5B
1503529217.47,37969,16.25,73952.8,-4.21,-36.07,-36.43,0,*55
1503529218.71,37970,16.25,73952.5,-4.23,-36.31,-36.67,0,*5C
1503529220.0,37971,16.19,73952.5,-4.23,-36.25,-36.61,0,*5E
1503529221.27,37972,16.19,73954.3,-4.23,-36.25,-36.67,0,*5B
1503529222.56,37973,16.25,73954.3,-4.23,-36.25,-36.49,0,*56
1503529223.82,37974,16.19,73952.3,-4.23,-36.31,-36.61,0,*5E
1503529225.11,37975,16.25,73954.8,-4.23,-36.25,-36.61,0,*5A
1503529226.37,37976,16.25,73954.3,-4.23,-36.31,-36.61,0,*5C
1503529227.66,37977,16.25,73952.8,-4.23,-36.25,-36.61,0,*58
1503529228.9,37978,16.25,73954.3,-4.21,-36.31,-36.79,0,*59
1503529230.16,37979,16.25,73956.0,-4.23,-36.31,-36.79,0,*5A
1503529231.4,37980,16.25,73954.0,-4.23,-36.31,-36.67,0,*53
1503529232.67,37981,16.19,73952.5,-4.23,-36.31,-36.61,0,*54
1503529233.89,37982,16.25,73958.3,-4.25,-36.31,-36.55,0,*56
1503529235.15,37983,16.25,73954.5,-4.25,-35.95,-36.37,0,*5E
1503529236.41,37984,16.25,73952.0,-4.25,-36.13,-36.49,0,*5D
1503529237.64,37985,16.25,73956.8,-4.25,-36.01,-36.37,0,*56
1503529238.91,37986,16.19,73950.5,-4.23,-36.07,-36.49,0,*5C
1503529240.15,37987,16.25,73954.5,-4.23,-36.31,-36.67,0,*54
1503529241.41,37988,16.25,73952.8,-4.23,-36.07,-36.49,0,*52
1503529242.65,37989,16.19,73950.5,-4.23,-35.89,-36.31,0,*59
1503529243.87,37990,16.25,73952.5,-4.25,-36.19,-36.55,0,*5F
1503529245.13,37991,16.25,73956.0,-4.23,-35.95,-36.43,0,*58
1503529246.38,37992,16.19,73948.3,-4.25,-35.95,-36.31,0,*58
1503529247.62,37993,16.19,73954.3,-4.23,-35.89,-36.31,0,*52
1503529248.88,37994,16.19,73948.8,-4.23,-35.77,-36.13,0,*54
1503529250.15,37995,16.19,73952.5,-4.23,-35.95,-36.31,0,*59
1503529251.44,37996,16.19,73954.5,-4.23,-36.25,-36.49,0,*5D
1503529252.65,37997,16.25,73954.0,-4.25,-36.31,-36.73,0,*56
1503529253.91,37998,16.25,73952.5,-4.25,-36.37,-36.91,0,*53
1503529255.15,37999,16.25,73954.5,-4.25,-36.37,-36.85,0,*57
1503529256.38,38000,16.19,73952.3,-4.25,-36.37,-36.85,0,*51
1503529257.65,38001,16.19,73952.3,-4.25,-36.37,-36.49,0,*50
1503529258.9,38002,16.25,73954.8,-4.25,-36.13,-36.49,0,*55
1503529260.15,38003,16.19,73952.3,-4.25,-35.89,-36.25,0,*5E
1503529261.36,38004,16.25,73954.5,-4.25,-35.77,-36.19,0,*57
1503529262.65,38005,16.25,73954.5,-4.27,-35.83,-36.37,0,*53
1503529263.89,38006,16.25,73954.0,-4.25,-35.95,-36.31,0,*53
1503529265.13,38007,16.25,73958.5,-4.25,-36.01,-36.49,0,*53
1503529266.42,38008,16.25,73954.5,-4.27,-35.95,-36.49,0,*50
1503529267.64,38009,16.19,73954.0,-4.25,-36.31,-36.67,0,*52
1503529268.87,38010,16.25,73954.8,-4.25,-36.37,-36.85,0,*50
1503529270.11,38011,16.25,73956.0,-4.25,-36.37,-36.67,0,*5D
1503529271.38,38012,16.25,73956.0,-4.27,-36.31,-36.49,0,*56
1503529272.65,38013,16.19,73952.3,-4.27,-35.95,-36.31,0,*55
1503529273.89,38014,16.19,73952.3,-4.27,-36.19,-36.55,0,*57
1503529275.13,38015,16.19,73952.0,-4.25,-36.13,-36.67,0,*5F
1503529276.35,38016,16.19,73952.3,-4.25,-36.31,-36.55,0,*5D
1503529277.59,38017,16.25,73952.5,-4.25,-36.37,-36.73,0,*5E
1503529278.85,38018,16.19,73954.3,-4.27,-36.37,-36.85,0,*5A
1503529280.1,38019,16.19,73954.0,-4.27,-36.31,-36.73,0,*54
1503529281.38,38020,16.19,73950.5,-4.27,-36.37,-36.91,0,*54
1503529282.64,38021,16.19,73950.0,-4.27,-36.37,-36.85,0,*50
1503529283.89,38022,16.25,73952.8,-4.27,-36.31,-36.67,0,*59
1503529285.13,38023,16.25,73952.0,-4.27,-36.31,-36.67,0,*58
1503529286.42,38024,16.19,73954.0,-4.27,-36.13,-36.49,0,*53
1503529287.68,38025,16.25,73956.0,-4.27,-36.01,-36.49,0,*51
1503529288.95,38026,16.25,73954.3,-4.27,-36.13,-36.55,0,*5C
1503529290.19,38027,16.19,73954.5,-4.27,-36.31,-36.73,0,*59
1503529291.45,38028,16.19,73954.0,-4.27,-36.37,-36.85,0,*59
1503529292.71,38029,16.19,73952.0,-4.27,-36.37,-36.85,0,*58
1503529293.98,38030,16.19,73952.3,-4.27,-36.37,-36.73,0,*59
1503529295.22,38031,16.19,73952.0,-4.29,-36.37,-36.73,0,*56
1503529296.44,38032,16.25,73954.5,-4.29,-36.07,-36.55,0,*52
1503529297.73,38033,16.19,73954.3,-4.27,-36.13,-36.49,0,*55
1503529299.0,38034,16.19,73950.8,-4.27,-36.37,-36.73,0,*5D
1503529300.24,38035,16.25,73956.5,-4.29,-36.43,-36.91,0,*5D
1503529301.5,38036,16.25,73954.5,-4.27,-36.37,-36.97,0,*55
1503529302.71,38037,16.25,73954.8,-4.33,-36.55,-36.97,0,*55
1503529303.96,38038,16.25,73952.0,-4.29,-36.37,-36.55,0,*5B
1503529305.19,38039,16.25,73952.0,-4.29,-36.19,-36.55,0,*56
1503529306.42,38040,16.19,73950.5,-4.29,-36.43,-36.79,0,*59
1503529307.67,38041,16.25,73954.5,-4.29,-36.37,-36.73,0,*51
1503529308.89,38042,16.19,73952.8,-4.33,-36.19,-36.55,0,*51
1503529310.13,38043,16.19,73950.5,-4.29,-36.01,-36.37,0,*56
1503529311.37,38044,16.25,73954.3,-4.29,-35.89,-36.25,0,*51
1503529312.61,38045,16.19,73952.5,-4.29,-35.83,-36.07,0,*5A
1503529313.85,38046,16.25,73954.8,-4.29,-35.89,-36.37,0,*50
1503529315.13,38047,16.25,73952.8,-4.27,-36.13,-36.37,0,*5F
1503529316.42,38048,16.19,73950.3,-4.27,-36.13,-36.49,0,*59
1503529317.7,38049,16.25,73954.8,-4.27,-36.13,-36.49,0,*58
1503529318.94,38050,16.19,73952.3,-4.27,-36.07,-36.31,0,*5A
1503529320.18,38051,16.19,73954.5,-4.29,-36.01,-36.37,0,*55
1503529321.42,38052,16.19,73952.5,-4.29,-35.83,-36.19,0,*53
1503529322.64,38053,16.19,73952.3,-4.29,-36.19,-36.43,0,*5D
1503529323.86,38054,16.19,73952.0,-4.29,-36.19,-36.43,0,*5A
1503529325.08,38055,16.19,73952.3,-4.29,-36.07,-36.43,0,*54
1503529326.3,38056,16.19,73952.0,-4.29,-36.07,-36.43,0,*57
1503529327.56,38057,16.25,73954.5,-4.27,-36.13,-36.55,0,*5A
1503529328.83,38058,16.19,73952.3,-4.27,-36.37,-36.73,0,*57
1503529330.1,38059,16.19,73952.8,-4.27,-35.95,-36.31,0,*5B
1503529331.37,38060,16.19,73954.5,-4.27,-35.95,-36.31,0,*51
1503529332.63,38061,16.19,73954.8,-4.27,-35.95,-36.19,0,*5A
1503529333.87,38062,16.19,73954.3,-4.33,-36.01,-36.37,0,*5E
1503529335.11,38063,16.19,73954.5,-4.29,-35.89,-36.25,0,*54
1503529336.4,38064,16.25,73952.8,-4.27,-35.83,-36.37,0,*54
1503529337.64,38065,16.25,73954.0,-4.27,-36.01,-36.31,0,*5A
1503529338.88,38066,16.25,73956.0,-4.27,-36.19,-36.55,0,*52
1503529340.15,38067,16.25,73954.3,-4.27,-35.95,-36.31,0,*56
1503529341.39,38068,16.19,73950.5,-4.29,-36.01,-36.37,0,*5F
1503529342.61,38069,16.19,73954.3,-4.33,-36.07,-36.55,0,*57
1503529343.84,38070,16.25,73952.0,-4.29,-35.89,-36.55,0,*51
1503529345.06,38071,16.19,73952.3,-4.29,-36.07,-36.43,0,*52
1503529346.3,38072,16.19,73952.8,-4.29,-36.07,-36.61,0,*51
1503529347.52,38073,16.25,73952.8,-4.29,-36.07,-36.55,0,*57
1503529348.74,38074,16.19,73950.8,-4.29,-36.07,-36.43,0,*57
1503529349.96,38075,16.19,73952.5,-4.29,-36.01,-36.43,0,*50
1503529351.18,38076,16.25,73956.3,-4.29,-36.07,-36.43,0,*55
1503529352.43,38077,16.19,73954.0,-4.29,-36.25,-36.73,0,*57
1503529353.65,38078,16.25,73952.5,-4.29,-36.43,-36.73,0,*58
1503529354.91,38079,16.19,73952.8,-4.29,-36.37,-36.61,0,*59
1503529356.18,38080,16.19,73950.8,-4.29,-36.37,-36.79,0,*56
1503529357.42,38081,16.19,73952.8,-4.29,-36.43,-36.79,0,*54
1503529358.66,38082,16.19,73952.0,-4.29,-36.43,-36.79,0,*57
1503529359.88,38083,16.19,73952.5,-4.29,-36.43,-36.73,0,*5C
1503529361.14,38084,16.19,73954.0,-4.29,-36.37,-36.79,0,*52
1503529362.39,38085,16.19,73952.3,-4.29,-36.25,-36.73,0,*5A
1503529363.63,38086,16.19,73950.0,-4.29,-36.07,-36.61,0,*5A
1503529364.88,38087,16.19,73950.8,-4.33,-36.25,-36.55,0,*57
1503529366.12,38088,16.19,73954.5,-4.29,-36.43,-36.79,0,*5D
1503529367.36,38089,16.19,73954.3,-4.29,-36.37,-36.73,0,*55
1503529368.62,38090,16.19,73950.3,-4.33,-36.37,-36.79,0,*5C
1503529369.89,38091,16.19,73954.3,-4.29,-36.37,-36.91,0,*50
1503529371.13,38092,16.19,73950.0,-4.33,-36.43,-36.91,0,*5B
1503529372.39,38093,16.19,73954.0,-4.33,-36.37,-36.79,0,*5F
1503529373.65,38094,16.25,73952.0,-4.33,-36.37,-36.91,0,*5E
1503529374.89,38095,16.19,73954.8,-4.33,-36.43,-36.91,0,*5C
1503529376.13,38096,16.19,73954.5,-4.33,-36.37,-36.73,0,*50
1503529377.37,38097,16.19,73952.8,-4.33,-36.25,-36.73,0,*52
1503529378.62,38098,16.19,73952.8,-4.33,-36.25,-36.73,0,*5D
1503529379.85,38099,16.19,73952.3,-4.33,-36.19,-36.61,0,*50
1503529381.09,38100,16.19,73954.3,-4.35,-36.07,-36.43,0,*58
1503529382.35,38101,16.19,73952.5,-4.35,-36.13,-36.43,0,*5C
1503529383.59,38102,16.25,73952.8,-4.33,-36.19,-36.61,0,*53
1503529384.82,38103,16.19,73954.8,-4.33,-36.19,-36.61,0,*52
1503529386.08,38104,16.19,73954.8,-4.33,-36.37,-36.79,0,*50
1503529387.35,38105,16.19,73952.8,-4.33,-36.25,-36.79,0,*52
1503529388.55,38106,16.19,73952.5,-4.37,-36.07,-36.43,0,*5C
1503529389.82,38107,16.19,73950.5,-4.35,-36.25,-36.67,0,*59
1503529391.08,38108,16.19,73952.0,-4.35,-36.07,-36.61,0,*50
1503529392.36,38109,16.19,73952.3,-4.35,-36.13,-36.61,0,*54
1503529393.6,38110,16.19,73954.5,-4.35,-36.07,-36.43,0,*59
1503529394.88,38111,16.19,73950.5,-4.35,-36.13,-36.61,0,*5D
1503529396.15,38112,16.19,73952.5,-4.35,-35.83,-36.31,0,*51
1503529397.44,38113,16.19,73950.3,-4.35,-36.25,-36.49,0,*50
1503529398.67,38114,16.19,73954.5,-4.35,-36.43,-36.85,0,*57
1503529399.93,38115,16.19,73954.3,-4.35,-36.31,-36.79,0,*50
1503529401.19,38116,16.19,73952.0,-4.35,-36.31,-36.79,0,*53
1503529402.42,38117,16.19,73950.5,-4.37,-36.31,-36.79,0,*50
1503529403.66,38118,16.19,73952.3,-4.37,-36.49,-36.79,0,*50
1503529404.95,38119,16.19,73948.8,-4.35,-36.25,-36.61,0,*50
1503529406.21,38120,16.19,73952.0,-4.37,-35.65,-35.95,0,*57
1503529407.47,38121,16.19,73948.3,-4.35,-35.95,-36.43,0,*53
1503529408.75,38122,16.19,73950.5,-4.35,-36.13,-36.49,0,*57
1503529409.99,38123,16.19,73948.8,-4.35,-35.89,-36.43,0,*5C
1503529411.23,38124,16.19,73952.0,-4.35,-36.31,-36.67,0,*5D
1503529412.52,38125,16.19,73952.3,-4.35,-36.13,-36.61,0,*5A
1503529413.76,38126,16.19,73954.0,-4.35,-36.07,-36.31,0,*59
1503529415.05,38127,16.19,73948.3,-4.35,-36.25,-36.61,0,*5D
1503529416.32,38128,16.19,73954.8,-4.35,-36.25,-36.67,0,*54
1503529417.58,38129,16.19,73954.0,-4.35,-36.31,-36.61,0,*56
1503529418.82,38130,16.19,73954.5,-4.37,-36.13,-36.49,0,*56
1503529420.07,38131,16.19,73954.3,-4.37,-36.13,-36.61,0,*5D
1503529421.33,38132,16.19,73950.0,-4.37,-35.95,-36.25,0,*53
1503529422.55,38133,16.19,73950.5,-4.37,-35.89,-36.13,0,*5A
1503529423.78,38134,16.19,73952.5,-4.37,-36.07,-36.49,0,*57
1503529425.04,38135,16.19,73950.8,-4.35,-36.07,-36.49,0,*54
1503529426.28,38136,16.19,73952.0,-4.35,-36.07,-36.31,0,*58
1503529427.54,38137,16.19,73954.8,-4.35,-36.31,-36.61,0,*59
1503529428.78,38138,16.19,73954.8,-4.35,-36.31,-36.67,0,*50
1503529430.04,38139,16.19,73948.5,-4.35,-36.31,-36.79,0,*5E
1503529431.25,38140,16.19,73948.3,-4.37,-35.89,-36.31,0,*5E
1503529432.53,38141,16.19,73952.8,-4.35,-36.13,-36.61,0,*58
1503529433.74,38142,16.19,73952.3,-4.37,-36.31,-36.67,0,*5F
1503529434.98,38143,16.19,73954.0,-4.35,-36.43,-36.67,0,*59
1503529436.24,38144,16.19,73954.0,-4.35,-36.25,-36.43,0,*58
1503529437.53,38145,16.19,73950.8,-4.35,-36.13,-36.49,0,*56
1503529438.82,38146,16.19,73952.5,-4.35,-36.25,-36.49,0,*50
1503529440.06,38147,16.19,73954.0,-4.35,-36.31,-36.67,0,*58
1503529441.29,38148,16.19,73954.3,-4.35,-36.43,-36.85,0,*5E
1503529442.52,38149,16.19,73950.5,-4.37,-36.43,-36.79,0,*5E
1503529443.77,38150,16.19,73952.3,-4.37,-36.25,-36.49,0,*55
1503529445.02,38151,16.19,73954.0,-4.37,-36.25,-36.49,0,*54
1503529446.25,38152,16.19,73948.8,-4.37,-36.31,-36.61,0,*58
1503529447.45,38153,16.19,73952.5,-4.37,-36.43,-36.67,0,*5A
1503529448.68,38154,16.19,73952.5,-4.37,-36.31,-36.79,0,*57
1503529449.88,38155,16.19,73946.8,-4.37,-36.07,-36.43,0,*5A
1503529451.11,38156,16.19,73954.0,-4.37,-35.95,-36.31,0,*54
1503529452.34,38157,16.19,73950.5,-4.37,-35.95,-36.43,0,*50
1503529453.59,38158,16.19,73948.3,-4.37,-36.13,-36.49,0,*58
1503529454.82,38159,16.19,73952.3,-4.37,-36.25,-36.67,0,*50
1503529456.03,38160,16.19,73954.8,-4.37,-36.31,-36.67,0,*5F
1503529457.26,38161,16.19,73950.8,-4.37,-36.25,-36.67,0,*5B
1503529458.51,38162,16.19,73946.8,-4.37,-36.25,-36.49,0,*54
1503529459.72,38163,16.19,73948.3,-4.37,-36.31,-36.67,0,*5C
1503529460.97,38164,16.19,73952.0,-4.37,-36.49,-36.79,0,*5B
1503529462.17,38165,16.19,73952.3,-4.37,-36.31,-36.67,0,*5A
1503529463.39,38166,16.19,73948.8,-4.39,-36.55,-36.85,0,*59
1503529464.62,38167,16.19,73950.3,-4.39,-36.01,-36.31,0,*56
1503529465.89,38168,16.19,73952.5,-4.39,-35.95,-36.37,0,*51
1503529467.12,38169,16.19,73950.0,-4.39,-36.19,-36.55,0,*53
1503529468.37,38170,16.19,73954.5,-4.39,-36.37,-36.85,0,*5A
1503529469.59,38171,16.19,73952.3,-4.37,-36.49,-36.85,0,*5C
1503529470.84,38172,16.19,73950.3,-4.37,-36.25,-36.61,0,*5F
1503529472.09,38173,16.19,73948.3,-4.37,-36.13,-36.49,0,*51
1503529473.33,38174,16.19,73948.5,-4.39,-36.19,-36.49,0,*52
1503529474.56,38175,16.19,73950.0,-4.39,-36.19,-36.55,0,*5E
1503529475.78,38176,16.19,73954.0,-4.41,-36.31,-36.55,0,*58
1503529477.01,38177,16.19,73952.5,-4.39,-36.31,-36.55,0,*56
1503529478.26,38178,16.19,73948.3,-4.39,-36.31,-36.49,0,*54
1503529479.51,38179,16.19,73952.3,-4.39,-36.37,-36.73,0,*5A
1503529480.74,38180,16.19,73954.3,-4.39,-36.31,-36.67,0,*5F
1503529481.95,38181,16.19,73950.8,-4.41,-36.19,-36.55,0,*5A
1503529483.2,38182,16.19,73950.0,-4.39,-36.55,-36.91,0,*56
1503529484.42,38183,16.19,73954.5,-4.39,-36.55,-36.85,0,*52
1503529485.67,38184,16.19,73952.3,-4.39,-36.37,-36.67,0,*5D
1503529486.94,38185,16.19,73950.0,-4.39,-36.13,-36.49,0,*56
1503529488.17,38186,16.19,73950.5,-4.41,-36.13,-36.55,0,*57
1503529489.39,38187,16.19,73948.3,-4.41,-36.31,-36.55,0,*56
1503529490.64,38188,16.19,73950.3,-4.39,-36.31,-36.49,0,*5B
1503529491.86,38189,16.19,73950.0,-4.41,-36.19,-36.49,0,*5F
1503529493.09,38190,16.19,73952.3,-4.39,-36.19,-36.55,0,*55
1503529494.3,38191,16.19,73952.5,-4.41,-36.19,-36.55,0,*5B
1503529495.53,38192,16.19,73952.5,-4.41,-36.37,-36.73,0,*50
1503529496.76,38193,16.19,73954.0,-4.41,-36.37,-36.67,0,*54
1503529497.97,38194,16.19,73952.8,-4.41,-36.01,-36.31,0,*55
1503529499.22,38195,16.19,73954.3,-4.41,-36.13,-36.37,0,*51
1503529500.43,38196,16.19,73952.3,-4.41,-36.19,-36.55,0,*5C
1503529501.66,38197,16.19,73952.3,-4.41,-36.49,-36.67,0,*59
1503529502.89,38198,16.19,73952.5,-4.41,-36.37,-36.67,0,*5F
1503529504.12,38199,16.19,73952.0,-4.41,-36.01,-36.49,0,*57
1503529505.35,38200,16.19,73952.0,-4.41,-35.77,-36.13,0,*59
1503529506.63,38201,16.19,73952.8,-4.39,-35.95,-36.37,0,*5D
1503529507.85,38202,16.19,73954.8,-4.39,-36.19,-36.55,0,*5D
1503529509.09,38203,16.19,73950.0,-4.43,-36.19,-36.55,0,*51
1503529510.31,38204,16.19,73948.5,-4.43,-36.19,-36.43,0,*51
1503529511.56,38205,16.19,73954.8,-4.39,-36.19,-36.49,0,*57
1503529512.79,38206,16.19,73950.3,-4.41,-35.89,-36.13,0,*5E
1503529514.01,38207,16.19,73952.5,-4.39,-35.89,-36.19,0,*5A
1503529515.21,38208,16.19,73950.5,-4.41,-35.89,-36.19,0,*5A
1503529516.42,38209,16.19,73954.0,-4.41,-36.19,-36.55,0,*59
1503529517.65,38210,16.19,73952.8,-4.39,-36.31,-36.73,0,*50
1503529518.88,38211,16.19,73952.0,-4.41,-36.37,-36.73,0,*58
1503529520.13,38212,16.19,73950.8,-4.39,-36.37,-36.85,0,*5D
1503529521.38,38213,16.19,73952.0,-4.41,-36.13,-36.49,0,*55
1503529522.61,38214,16.19,73948.8,-4.41,-36.37,-36.67,0,*58
1503529523.84,38215,16.19,73952.5,-4.41,-36.01,-36.49,0,*50
1503529525.07,38216,16.19,73948.8,-4.41,-35.95,-36.31,0,*52
1503529526.3,38217,16.19,73952.0,-4.39,-36.01,-36.31,0,*52
1503529527.54,38218,16.19,73948.0,-4.41,-36.13,-36.37,0,*57
1503529528.75,38219,16.19,73952.0,-4.41,-35.89,-36.31,0,*50
1503529529.95,38220,16.19,73950.5,-4.41,-35.89,-36.19,0,*50
1503529531.18,38221,16.19,73950.5,-4.39,-35.77,-36.19,0,*5F
1503529532.4,38222,16.19,73952.8,-4.41,-35.95,-36.19,0,*5F
1503529533.64,38223,16.19,73948.5,-4.41,-35.77,-36.13,0,*58
1503529534.87,38224,16.19,73954.3,-4.41,-35.41,-35.77,0,*5B
1503529536.1,38225,16.19,73954.8,-4.39,-35.71,-36.01,0,*54
1503529537.31,38226,16.19,73952.3,-4.41,-36.19,-36.55,0,*54
1503529538.58,38227,16.19,73948.8,-4.39,-36.13,-36.49,0,*5D
1503529539.81,38228,16.19,73950.3,-4.41,-36.13,-36.55,0,*50
1503529541.03,38229,16.19,73948.0,-4.41,-36.19,-36.49,0,*56
1503529542.26,38230,16.19,73954.3,-4.39,-36.19,-36.67,0,*5D
1503529543.47,38231,16.19,73952.8,-4.41,-36.31,-36.55,0,*58
1503529544.71,38232,16.19,73950.8,-4.41,-35.95,-36.31,0,*54
1503529545.91,38233,16.19,73952.3,-4.41,-35.77,-36.19,0,*53
1503529547.12,38234,16.19,73954.3,-4.41,-35.77,-36.19,0,*54
1503529548.37,38235,16.19,73952.0,-4.41,-36.13,-36.49,0,*51
1503529549.57,38236,16.19,73950.8,-4.41,-35.89,-36.31,0,*5D
1503529550.78,38237,16.19,73954.5,-4.41,-36.19,-36.55,0,*54
1503529551.98,38238,16.19,73950.5,-4.41,-36.19,-36.73,0,*5F
1503529553.23,38239,16.19,73954.0,-4.41,-36.13,-36.49,0,*5D
1503529554.49,38240,16.19,73950.3,-4.41,-35.95,-36.37,0,*57
1503529555.69,38241,16.19,73950.8,-4.41,-35.77,-36.19,0,*56
1503529556.92,38242,16.19,73948.8,-4.41,-35.59,-36.13,0,*53
1503529558.11,38243,16.19,73948.0,-4.41,-35.59,-36.19,0,*58
1503529559.37,38244,16.19,73952.5,-4.39,-36.13,-36.55,0,*55
1503529560.58,38245,16.19,73952.3,-4.41,-36.19,-36.55,0,*51
1503529561.83,38246,16.19,73954.3,-4.43,-36.19,-36.61,0,*57
1503529563.06,38247,16.19,73950.8,-4.43,-36.19,-36.55,0,*51
1503529564.33,38248,16.19,73954.3,-4.43,-36.37,-36.61,0,*55
1503529565.59,38249,16.19,73954.0,-4.43,-36.43,-36.79,0,*5E
1503529566.87,38250,16.19,73950.5,-4.43,-36.25,-36.61,0,*5F
1503529568.14,38251,16.19,73954.0,-4.43,-36.25,-36.61,0,*5E
1503529569.42,38252,16.19,73950.3,-4.43,-36.25,-36.79,0,*54
1503529570.7,38253,16.19,73952.3,-4.43,-36.25,-36.79,0,*55
1503529571.97,38254,16.19,73954.5,-4.43,-36.37,-36.79,0,*51
1503529573.22,38255,16.19,73954.3,-4.43,-35.83,-36.19,0,*5A
1503529574.47,38256,16.19,73950.3,-4.43,-35.65,-36.19,0,*51
1503529575.72,38257,16.19,73952.3,-4.45,-36.13,-36.61,0,*5B
1503529576.97,38258,16.19,73948.0,-4.43,-36.19,-36.61,0,*58
1503529578.22,38259,16.19,73954.3,-4.45,-36.13,-36.61,0,*55
1503529579.45,38260,16.19,73954.5,-4.43,-36.01,-36.43,0,*5A
1503529580.69,38261,16.19,73954.5,-4.43,-36.01,-36.37,0,*58
1503529581.95,38262,16.19,73952.8,-4.43,-35.77,-36.25,0,*5A
1503529583.21,38263,16.19,73952.5,-4.43,-35.83,-36.31,0,*55
1503529584.46,38264,16.19,73952.8,-4.43,-36.19,-36.61,0,*57
1503529585.71,38265,16.19,73954.5,-4.43,-36.19,-36.61,0,*56
1503529586.99,38266,16.19,73952.8,-4.43,-36.25,-36.61,0,*5A
1503529588.19,38267,16.19,73952.0,-4.45,-36.43,-36.85,0,*57
1503529589.44,38268,16.19,73952.8,-4.43,-36.37,-36.73,0,*54
1503529590.71,38269,16.19,73954.5,-4.43,-36.25,-36.55,0,*52
1503529591.95,38270,16.19,73954.3,-4.43,-36.01,-36.37,0,*58
1503529593.19,38271,16.19,73954.3,-4.43,-36.07,-36.55,0,*5B
1503529594.42,38272,16.19,73952.5,-4.43,-36.07,-36.43,0,*5F
1503529595.68,38273,16.19,73950.5,-4.45,-36.25,-36.61,0,*58
1503529596.91,38274,16.19,73954.0,-4.45,-36.25,-36.67,0,*59
1503529598.19,38275,16.19,73950.0,-4.43,-36.25,-36.61,0,*58
1503529599.44,38276,16.19,73948.5,-4.43,-36.19,-36.61,0,*54
1503529600.68,38277,16.19,73952.8,-4.45,-36.25,-36.67,0,*5A
1503529601.93,38278,16.19,73954.3,-4.45,-36.25,-36.61,0,*53
1503529603.16,38279,16.19,73952.5,-4.45,-36.31,-36.61,0,*57
1503529604.37,38280,16.19,73952.0,-4.45,-36.07,-36.31,0,*51
1503529605.62,38281,16.19,73952.8,-4.45,-36.13,-36.49,0,*5A
1503529606.85,38282,16.19,73948.5,-4.45,-36.13,-36.67,0,*55
1503529608.06,38283,16.19,73954.3,-4.45,-36.31,-36.67,0,*54
1503529609.31,38284,16.19,73952.5,-4.47,-36.31,-36.61,0,*57
1503529610.52,38285,16.19,73954.3,-4.45,-36.31,-36.67,0,*52
1503529611.77,38286,16.19,73948.8,-4.45,-36.25,-36.61,0,*52
1503529613.02,38287,16.19,73952.0,-4.45,-36.13,-36.61,0,*56
1503529614.28,38288,16.19,73954.5,-4.45,-36.25,-36.49,0,*56
1503529615.54,38289,16.19,73954.8,-4.47,-36.25,-36.67,0,*59
1503529616.77,38290,16.19,73952.0,-4.45,-36.31,-36.61,0,*50
1503529618.02,38291,16.19,73952.5,-4.47,-36.25,-36.67,0,*50
1503529619.3,38292,16.19,73952.8,-4.47,-36.25,-36.61,0,*55
1503529620.57,38293,16.19,73952.3,-4.47,-36.13,-36.61,0,*51
1503529621.8,38294,16.19,73952.0,-4.47,-36.01,-36.43,0,*55
1503529623.02,38295,16.19,73954.5,-4.47,-35.89,-36.31,0,*52
1503529624.27,38296,16.19,73952.0,-4.47,-36.07,-36.49,0,*5B
1503529625.5,38297,16.19,73956.3,-4.47,-35.89,-36.31,0,*50
1503529626.72,38298,16.19,73950.3,-4.47,-36.01,-36.43,0,*59
1503529627.95,38299,16.19,73954.0,-4.49,-36.37,-36.67,0,*55
1503529629.16,38300,16.19,73954.5,-4.49,-36.31,-36.73,0,*57
1503529630.39,38301,16.19,73954.0,-4.47,-36.31,-36.67,0,*5D
1503529631.67,38302,16.19,73954.0,-4.47,-36.25,-36.61,0,*5D
1503529632.93,38303,16.19,73952.8,-4.47,-36.13,-36.61,0,*59
1503529634.19,38304,16.19,73954.3,-4.47,-36.25,-36.67,0,*5D
1503529635.47,38305,16.19,73954.0,-4.47,-36.25,-36.61,0,*5A
1503529636.7,38306,16.19,73954.0,-4.47,-35.89,-36.43,0,*5C
1503529637.92,38307,16.19,73954.5,-4.47,-36.01,-36.43,0,*5E
1503529639.18,38308,16.19,73954.0,-4.47,-35.89,-36.25,0,*52
1503529640.38,38309,16.19,73954.0,-4.49,-35.71,-36.31,0,*5F
1503529641.6,38310,16.19,73952.8,-4.47,-36.01,-36.31,0,*5D
1503529642.88,38311,16.19,73956.5,-4.47,-35.83,-36.25,0,*50
1503529644.13,38312,16.19,73952.0,-4.47,-35.71,-36.13,0,*5B
1503529645.38,38313,16.19,73954.8,-4.47,-35.71,-36.25,0,*5F
1503529646.61,38314,16.19,73954.3,-4.49,-36.13,-36.55,0,*56
1503529647.84,38315,16.19,73954.8,-4.45,-36.07,-36.49,0,*53
1503529649.05,38316,16.19,73952.3,-4.45,-35.89,-36.31,0,*5A
1503529650.3,38317,16.19,73954.5,-4.47,-35.71,-36.25,0,*5B
1503529651.53,38318,16.19,73950.3,-4.49,-35.83,-36.31,0,*52
1503529652.76,38319,16.19,73954.5,-4.47,-36.01,-36.31,0,*54
1503529654.01,38320,16.19,73954.5,-4.47,-36.01,-36.49,0,*51
1503529655.27,38321,16.19,73950.3,-4.47,-36.13,-36.49,0,*53
1503529656.53,38322,16.19,73952.3,-4.47,-36.07,-36.49,0,*55
1503529657.77,38323,16.19,73952.3,-4.49,-36.13,-36.49,0,*5F
1503529659.02,38324,16.19,73948.8,-4.47,-36.07,-36.49,0,*53
1503529660.29,38325,16.19,73948.0,-4.47,-36.13,-36.61,0,*5D
1503529661.57,38326,16.19,73954.5,-4.47,-35.83,-36.25,0,*54
1503529662.85,38327,16.19,73952.5,-4.47,-35.83,-36.13,0,*50
1503529664.1,38328,16.19,73952.8,-4.47,-35.71,-36.25,0,*57
1503529665.35,38329,16.19,73948.0,-4.47,-35.71,-36.13,0,*53
1503529666.58,38330,16.19,73952.0,-4.45,-35.89,-36.25,0,*5B
1503529667.81,38331,16.19,73954.8,-4.47,-36.01,-36.31,0,*5E
1503529669.03,38332,16.19,73952.8,-4.47,-36.01,-36.31,0,*5D
1503529670.28,38333,16.19,73954.0,-4.45,-36.13,-36.49,0,*52
1503529671.53,38334,16.19,73950.0,-4.45,-36.13,-36.49,0,*55
1503529672.79,38335,16.19,73954.5,-4.45,-36.25,-36.61,0,*5B
1503529674.06,38336,16.19,73952.0,-4.47,-36.13,-36.61,0,*5F
1503529675.26,38337,16.19,73954.5,-4.49,-36.19,-36.55,0,*5D
1503529676.5,38338,16.19,73952.5,-4.49,-36.25,-36.67,0,*5C
1503529677.72,38339,16.19,73952.8,-4.49,-36.37,-36.85,0,*52
1503529679.0,38340,16.19,73950.8,-4.47,-36.25,-36.79,0,*52
1503529680.22,38341,16.19,73952.8,-4.49,-36.31,-36.79,0,*58
1503529681.47,38342,16.19,73952.0,-4.47,-36.43,-36.79,0,*50
1503529682.67,38343,16.19,73952.8,-4.49,-36.31,-36.67,0,*55
1503529683.94,38344,16.19,73948.8,-4.47,-36.13,-36.49,0,*50
1503529685.17,38345,16.19,73952.0,-4.47,-36.07,-36.43,0,*5E
1503529686.4,38346,16.19,73954.0,-4.47,-35.89,-36.31,0,*5D
1503529687.65,38347,16.19,73952.8,-4.47,-35.83,-36.31,0,*56
1503529688.88,38348,16.19,73954.3,-4.47,-36.01,-36.31,0,*50
1503529690.1,38349,16.19,73950.5,-4.49,-36.07,-36.37,0,*5F
1503529691.35,38350,16.19,73954.8,-4.47,-35.89,-36.25,0,*5F
1503529692.63,38351,16.19,73952.8,-4.47,-35.83,-36.25,0,*54
1503529693.86,38352,16.19,73950.5,-4.47,-36.01,-36.31,0,*5B
1503529695.11,38353,16.19,73954.5,-4.49,-36.13,-36.49,0,*58
1503529696.38,38354,16.19,73950.8,-4.47,-36.13,-36.49,0,*51
1503529697.62,38355,16.19,73952.8,-4.47,-36.13,-36.43,0,*5A